Voltar ao catálogo

SL-12 DEB

LostHEO
NORAD 41690·DEBRIS·🇷🇺 Russia

Lançado Oct 26, 2007 de Baikonur Cosmodrome

Loading…

Próximas Passagens (próximas 24 horas)

TLE

ObsoletoSource: Space-Track

Época: Apr 21, 2018, 11:22 UTC

1 41690U 07052X   18111.47421640  .00018138  00000-0  97686-2 0  9993
2 41690  63.8917 241.4430 5765713  34.7125 352.0047  4.32641947 54112

Acompanhe SL-12 DEB em tempo real com AllMySat

Download on the App Store